RH
100 100 100 100 100 100 100 100 100 100 100 100 98 77 64 97 100 100 80 86 58 46 52 53 44 65 39 50 43 45 46 61 78 70 95 78 100 100 96 96 59 48 70
100 100 99 100 99 100 100 100 100 100 100 100 100 100 86 79 81 84 57 49 52 50 49 100 69 68 67 53 54 53 53 77 78 82 100 93 96 100 100 100 100 52 46
100 100 100 100 100 100 100 100 100 100 100 100 100 100 100 83 90 84 77 92 59 91 91 100 79 76 73 56 52 56 65 79 86 100 100 100 97 100 100 100 100 85 59
88 100 100 100 100 100 100 100 100 100 100 100 100 100 99 90 96 86 45 56 73 100 100 99 89 99 64 67 81 79 86 83 100 100 100 100 89 88 91 100 100 100 99
31 41 69 98 100 99 93 100 100 100 100 100 100 100 100 100 82 72 99 100 100 100 100 100 99 93 100 100 100 100 100 91 100 100 100 100 100 99 77 100 100 100 100
35 41 50 55 63 90 98 100 100 100 100 100 100 100 100 100 94 100 100 94 100 100 100 100 95 81 96 100 100 100 100 100 100 100 98 100 100 100 91 97 100 100 100
32 34 43 40 59 57 92 95 88 99 100 100 100 100 100 91 91 100 99 100 100 100 100 100 91 84 100 100 92 95 99 86 71 99 100 100 100 100 99 97 100 100 100
35 45 60 71 59 76 100 100 100 100 100 100 100 100 100 100 100 100 100 100 97 100 100 100 83 78 80 93 93 86 84 79 69 82 100 100 100 100 99 97 100 100 100
26 33 60 100 89 90 100 100 100 100 100 100 100 100 100 100 100 100 100 94 87 82 90 100 63 76 88 86 93 82 78 84 98 100 100 100 100 100 99 100 100 100 100
20 25 31 68 60 100 100 99 100 100 100 100 100 100 100 100 97 100 100 100 79 72 91 100 88 95 97 100 99 88 83 84 85 85 88 99 96 90 93 99 100 100 100
18 19 26 32 34 41 47 69 78 91 100 90 83 79 99 100 100 100 100 100 85 97 100 100 99 100 100 100 100 100 87 82 81 85 77 77 98 96 96 100 100 100 100
20 18 18 28 41 42 43 45 57 71 93 74 80 84 100 100 100 100 100 100 100 100 100 100 100 98 100 100 100 100 98 87 86 71 70 86 88 100 100 100 100 100 100
30 22 23 23 33 65 80 70 52 50 67 89 90 100 100 100 100 100 100 93 100 100 100 100 100 99 100 100 98 93 84 72 67 65 74 80 95 100 100 100 100 100 100
71 34 27 28 28 38 55 88 96 95 89 82 96 100 100 100 100 100 100 100 100 100 100 100 100 100 100 100 91 93 83 67 63 75 90 89 97 100 99 98 100 100 100
92 69 41 33 38 33 48 65 87 93 100 100 99 97 96 100 100 100 100 100 100 100 100 100 100 96 97 99 100 100 100 90 89 88 90 96 96 97 100 100 100 100 100
100 83 59 40 45 52 55 61 93 91 89 94 99 99 100 100 100 100 100 100 100 100 100 100 94 93 96 100 96 99 100 100 100 98 100 100 100 98 99 97 96 95 93
100 91 76 46 62 69 60 66 72 65 78 94 100 100 100 100 100 100 100 100 99 98 94 90 88 91 96 100 100 93 97 100 100 100 95 97 97 97 95 95 93 94 95
100 99 83 62 56 84 81 86 88 98 95 92 88 94 100 100 100 100 100 100 100 100 99 100 100 100 100 100 100 100 100 100 100 100 100 99 96 94 92 99 97 90 86
100 100 95 72 61 80 94 82 96 100 100 100 100 100 100 100 100 100 100 100 100 100 100 100 100 100 100 100 100 100 100 100 100 100 100 100 100 100 96 85 85 87 94
100 100 100 87 66 80 78 87 90 100 100 100 100 100 100 100 100 100 100 100 100 100 100 100 100 100 100 100 100 96 97 99 95 94 85 90 100 100 100 98 94 95 97
100 100 100 94 75 88 87 80 86 100 100 100 100 100 100 100 100 100 100 100 100 100 100 100 100 100 100 100 100 100 99 97 99 100 100 100 100 99 98 99 94 88 86
100 100 100 98 78 92 100 99 84 91 98 100 100 100 100 100 100 100 100 100 100 100 100 100 100 100 100 100 100 100 100 100 99 96 96 98 94 89 89 88 82 80 78
96 99 100 91 75 98 100 100 100 90 100 100 100 100 100 100 100 100 100 100 100 100 100 100 100 100 100 100 100 100 97 99 100 99 100 99 100 98 89 78 70 64 58
73 76 85 78 76 100 100 100 100 93 100 100 100 100 100 100 100 100 100 100 100 100 100 100 100 100 100 96 90 90 89 90 90 85 89 84 74 67 60 51 45 39 36
36 53 64 67 88 100 100 100 100 100 98 100 100 100 100 100 100 100 100 100 100 100 100 100 100 100 100 99 94 90 88 84 78 71 63 54 47 41 36 38 39 38 37
25 39 53 66 98 100 100 100 100 100 100 90 100 100 100 100 100 100 100 100 100 98 98 98 98 94 89 85 80 72 66 60 54 50 46 44 45 46 45 44 44 38 28
Wind_Speed
112 109 106 105 104 101 101 101 103 102 105 104 98 93 91 91 91 93 87 77 78 77 79 82 79 75 76 73 74 70 66 68 71 69 65 59 57 55 56 53 50 52 53
100 107 105 104 103 103 100 94 94 92 92 97 97 96 94 86 84 81 83 88 90 89 87 81 81 82 79 78 72 70 72 74 74 71 69 64 61 60 60 62 55 53 54
106 101 100 101 97 96 98 98 93 91 89 89 91 89 80 79 79 78 81 82 82 86 84 84 83 82 81 82 77 74 74 76 76 70 70 70 66 62 62 64 63 57 55
109 114 113 110 106 100 96 91 90 86 89 90 93 97 89 85 84 85 88 86 90 85 81 86 83 78 82 81 77 74 73 70 71 68 69 69 70 66 65 67 66 63 60
108 107 106 104 105 109 104 99 92 94 95 91 98 96 100 93 92 89 85 83 86 85 78 76 78 79 78 77 78 76 74 71 72 69 70 74 73 71 70 67 68 67 65
108 108 105 103 102 104 108 105 102 99 99 102 98 93 97 91 84 82 83 84 85 78 79 81 82 82 79 79 80 79 76 77 76 76 76 74 74 73 69 68 67 68 70
107 103 100 100 94 89 84 91 93 87 89 88 87 90 94 91 85 82 82 84 84 79 80 80 79 76 75 77 78 80 77 75 77 79 77 74 73 73 72 70 68 70 70
106 104 100 99 94 87 84 82 84 84 89 92 95 92 91 90 87 86 87 88 89 86 85 84 80 77 77 76 79 78 75 78 79 80 79 79 76 77 74 73 73 73 75
103 105 104 101 99 92 90 90 92 93 93 92 90 89 93 92 95 90 95 94 91 85 80 81 78 76 75 73 72 72 76 78 78 77 76 77 77 77 76 76 76 74 76
97 99 102 108 106 102 101 97 97 100 95 96 97 97 94 91 95 89 90 89 86 79 79 83 79 75 75 74 74 74 74 76 82 83 81 80 81 81 78 76 77 77 79
90 92 94 98 101 104 104 103 101 99 106 99 98 96 102 98 95 94 94 91 85 83 83 82 81 82 79 78 79 78 77 79 80 81 82 80 81 81 80 80 80 81 81
84 85 86 87 90 95 100 100 101 102 103 99 95 96 101 102 102 102 97 96 92 87 90 87 84 85 87 83 83 81 82 81 84 84 83 81 83 82 81 82 83 83 84
68 81 82 80 81 85 87 90 92 93 93 94 95 98 101 103 102 103 100 94 92 91 90 89 87 86 88 88 87 85 85 85 86 86 86 84 82 81 80 83 83 85 87
49 58 69 79 78 77 80 85 87 89 89 90 93 96 101 101 99 97 96 96 94 93 93 92 92 91 91 91 90 89 89 90 89 87 85 82 83 83 84 86 87 88 89
51 52 55 64 73 74 74 78 80 83 86 89 90 91 92 95 97 97 95 93 94 94 93 94 92 90 89 90 91 89 89 88 83 83 82 82 84 84 85 86 88 91 93
53 55 55 57 63 69 73 73 81 85 84 84 85 85 88 90 90 90 93 93 94 94 92 89 89 89 90 91 88 88 85 81 81 82 83 83 87 91 92 94 95 96 96
57 56 57 56 63 65 69 69 69 74 80 86 90 88 86 89 93 93 92 90 89 87 86 86 87 87 86 86 85 83 81 82 84 85 87 88 89 91 92 92 94 96 98
59 56 59 59 62 66 66 67 66 67 69 71 75 81 89 92 90 86 85 85 85 84 84 83 81 80 79 78 79 79 81 83 86 87 86 88 90 91 92 94 97 98 100
64 57 59 63 65 68 67 67 66 64 68 69 71 71 72 75 77 80 81 80 78 75 74 74 74 74 73 73 76 79 82 83 84 86 89 91 92 95 95 98 99 100 102
65 63 61 65 68 72 71 66 66 63 63 67 68 70 72 72 72 72 71 71 71 71 71 73 74 74 76 77 79 80 83 87 89 89 89 90 92 93 93 95 96 99 102
64 68 65 66 71 74 75 69 68 67 64 64 66 67 68 70 68 68 69 70 71 72 72 73 74 76 77 78 80 82 84 86 87 88 89 90 92 94 97 99 102 106 109
69 73 73 70 73 76 75 73 69 69 66 64 64 65 66 67 68 68 70 71 71 71 72 74 76 77 78 79 80 82 84 87 89 91 92 94 97 100 103 106 109 113 116
77 78 79 74 76 76 72 69 72 70 65 63 62 65 66 68 68 69 69 69 71 72 73 74 76 78 79 81 83 86 87 89 91 94 96 98 102 105 109 113 117 120 123
83 83 81 76 79 78 72 68 70 67 66 66 66 67 67 68 68 68 69 70 71 72 74 76 77 78 80 83 86 88 91 92 95 99 102 106 109 113 117 118 119 121 122
80 80 78 78 83 81 74 71 70 64 68 70 70 70 69 69 70 68 69 70 72 74 76 77 79 82 85 87 90 93 95 97 100 104 108 110 112 112 114 116 118 120 122
75 76 78 80 86 83 78 75 68 64 64 67 67 69 70 71 72 73 74 75 76 78 80 82 83 86 88 90 92 93 96 98 101 104 106 109 113 116 119 121 121 118 115
Wind_Direction
246 245 247 248 248 249 251 251 255 259 262 264 264 264 264 263 260 264 267 266 270 273 271 271 274 272 276 277 277 275 276 274 276 277 274 269 265 270 268 270 275 275 272
246 248 251 249 250 250 251 251 253 256 258 260 263 261 263 263 262 258 261 267 272 272 270 269 271 272 273 275 277 274 276 275 275 274 269 261 263 265 268 266 270 275 270
249 247 246 246 247 249 250 252 253 253 255 259 261 261 259 257 257 262 266 266 269 268 268 267 270 270 273 277 276 274 273 272 274 270 267 263 258 260 265 268 267 267 264
247 244 244 247 249 247 248 245 247 250 251 255 258 264 261 259 260 263 269 266 262 263 263 263 267 267 275 278 273 274 270 270 272 269 263 264 264 258 260 266 266 268 265
250 251 250 248 249 248 246 244 246 250 253 254 259 258 263 261 265 262 262 261 262 264 262 265 267 273 272 268 269 269 269 270 268 267 264 266 266 261 257 264 264 261 265
245 246 248 249 250 248 246 245 249 250 250 254 255 255 259 261 261 262 252 258 257 262 264 266 269 273 270 267 267 268 265 267 266 268 268 265 265 260 262 262 264 263 266
244 244 246 247 246 245 242 245 248 245 243 242 247 253 259 259 258 249 251 255 259 263 267 266 271 267 263 264 267 266 268 268 268 265 264 264 262 262 261 262 263 266 267
241 242 244 244 244 244 239 235 231 230 236 240 248 253 257 257 254 250 251 258 263 265 266 267 268 265 264 264 265 267 268 268 268 267 265 261 261 262 262 263 264 265 267
236 237 238 237 244 240 237 236 232 231 236 240 241 247 254 257 252 249 256 259 261 263 262 264 265 261 261 265 265 265 265 266 266 266 265 263 261 263 264 265 264 263 264
236 236 236 237 239 237 238 239 236 234 237 239 237 244 249 251 256 256 259 260 260 259 255 260 262 260 260 262 265 265 265 266 267 266 265 264 263 265 263 263 264 262 264
242 237 236 237 239 239 239 239 239 239 237 243 242 242 245 249 254 258 261 261 259 259 257 259 260 258 262 262 264 265 266 264 265 266 266 266 264 264 265 265 263 262 264
250 246 241 237 237 238 239 239 238 238 239 241 241 241 241 245 250 253 256 256 258 257 258 258 259 259 259 263 264 266 265 265 264 266 266 266 265 264 264 264 264 264 264
258 253 247 242 238 238 239 240 241 240 239 239 240 241 241 244 247 250 253 255 255 256 256 257 259 259 259 262 264 265 265 265 266 266 266 266 265 265 264 264 264 264 263
264 257 254 248 242 238 238 239 240 241 241 241 240 241 242 244 246 249 251 252 253 254 254 256 258 260 261 262 264 265 266 266 266 265 266 267 265 265 265 265 266 267 268
267 263 252 250 247 241 239 239 239 240 239 240 240 241 241 243 245 247 249 250 252 253 256 257 259 260 261 261 263 264 265 267 267 267 268 269 270 269 269 268 268 268 268
265 264 261 251 248 241 238 238 240 241 240 242 243 243 243 243 245 245 246 250 252 255 257 258 259 259 260 261 263 264 264 264 265 266 267 268 269 270 270 271 271 271 271
264 267 264 258 249 244 238 236 238 239 240 242 243 243 243 242 244 248 252 253 254 254 255 256 258 259 261 262 262 261 261 263 265 267 270 269 269 270 271 271 272 273 273
258 263 264 260 251 245 239 235 236 238 239 240 240 241 242 244 247 249 250 251 253 255 257 258 259 259 259 260 261 262 263 264 266 268 268 269 269 270 271 272 272 272 273
253 259 264 260 254 245 241 234 234 236 239 239 239 240 241 242 244 246 249 252 254 256 257 258 259 260 261 261 263 263 264 265 267 268 269 269 270 270 271 272 273 274 275
250 259 261 260 254 247 242 236 232 232 234 236 238 240 241 243 246 247 250 252 254 256 257 257 258 259 260 262 263 264 265 266 269 271 272 273 273 273 273 273 274 275 275
251 257 259 259 251 244 243 237 232 232 233 234 235 237 240 243 245 248 250 251 254 255 256 258 260 261 261 262 265 266 267 269 270 270 271 271 272 273 274 275 275 275 275
250 253 257 255 248 240 237 238 234 231 232 234 236 239 242 244 246 248 250 251 253 255 257 258 260 262 263 264 265 266 268 269 269 270 272 273 274 274 275 276 277 277 278
249 250 253 250 243 233 233 235 234 231 231 233 235 238 241 243 245 247 249 252 254 256 258 260 261 263 264 265 266 267 268 270 271 273 275 276 275 276 276 277 279 279 279
244 245 245 244 235 227 227 231 234 230 227 229 232 235 238 242 245 248 250 252 254 256 258 260 263 265 266 267 268 270 271 272 272 274 275 276 276 277 278 279 280 281 282
238 238 237 234 227 222 223 228 231 232 227 230 233 235 238 241 243 246 248 250 253 255 258 260 262 264 266 267 268 270 272 273 275 276 277 279 280 281 283 286 287 288 288
230 228 227 225 221 219 220 225 231 234 233 233 235 238 241 244 247 249 251 253 255 257 259 261 264 266 268 270 272 275 277 278 279 281 284 286 288 290 291 292 293 291 290